TimeMDT,TemperatureF,Dew PointF,Humidity,Sea Level PressureIn,VisibilityMPH,Wind Direction,Wind SpeedMPH,Gust SpeedMPH,PrecipitationIn,Events,Conditions,WindDirDegrees,DateUTC
12:53 AM,32.0,27.0,82,29.95,10.0,WSW,8.1,-,N/A,,Clear,250,2014-03-14 06:53:00
1:53 AM,33.1,27.0,78,29.96,10.0,WNW,10.4,-,N/A,,Clear,290,2014-03-14 07:53:00
2:33 AM,35.6,28.4,75,29.95,10.0,West,18.4,-,N/A,,Clear,280,2014-03-14 08:33:00
2:53 AM,35.1,27.0,72,29.98,10.0,West,17.3,-,N/A,,Clear,280,2014-03-14 08:53:00
3:53 AM,34.0,27.0,75,29.99,10.0,West,13.8,-,N/A,,Clear,270,2014-03-14 09:53:00
4:53 AM,32.0,27.0,82,30.01,10.0,WSW,11.5,-,N/A,,Clear,250,2014-03-14 10:53:00
5:53 AM,30.9,26.1,82,30.01,10.0,WSW,11.5,-,N/A,,Clear,250,2014-03-14 11:53:00
6:53 AM,30.0,25.0,82,30.01,10.0,WSW,9.2,-,N/A,,Clear,250,2014-03-14 12:53:00
7:53 AM,32.0,26.1,79,30.03,10.0,WSW,10.4,-,N/A,,Clear,240,2014-03-14 13:53:00
8:53 AM,37.0,27.0,67,30.03,10.0,WSW,9.2,-,N/A,,Clear,250,2014-03-14 14:53:00
9:53 AM,45.0,25.0,46,29.99,10.0,WSW,9.2,-,N/A,,Clear,250,2014-03-14 15:53:00
10:53 AM,48.9,25.0,39,29.98,10.0,SW,9.2,-,N/A,,Clear,230,2014-03-14 16:53:00
11:53 AM,52.0,27.0,38,29.97,10.0,WSW,8.1,-,N/A,,Clear,250,2014-03-14 17:53:00
12:53 PM,55.9,26.1,32,29.93,10.0,WSW,17.3,-,N/A,,Clear,250,2014-03-14 18:53:00
1:53 PM,60.1,27.0,28,29.89,10.0,West,17.3,25.3,N/A,,Clear,260,2014-03-14 19:53:00
2:53 PM,62.1,25.0,24,29.85,10.0,West,16.1,25.3,N/A,,Clear,260,2014-03-14 20:53:00
3:53 PM,62.1,21.0,21,29.83,10.0,WSW,16.1,25.3,N/A,,Clear,250,2014-03-14 21:53:00
4:53 PM,63.0,23.0,22,29.80,10.0,WSW,11.5,-,N/A,,Clear,250,2014-03-14 22:53:00
5:53 PM,61.0,19.9,21,29.81,10.0,WNW,12.7,-,N/A,,Clear,290,2014-03-14 23:53:00
6:53 PM,53.1,26.1,35,29.83,10.0,West,6.9,-,N/A,,Clear,260,2014-03-15 00:53:00
7:53 PM,46.0,28.9,51,29.84,10.0,SSW,9.2,-,N/A,,Clear,200,2014-03-15 01:53:00
8:53 PM,42.1,28.0,58,29.83,10.0,West,8.1,-,N/A,,Clear,260,2014-03-15 02:53:00
9:53 PM,43.0,26.1,51,29.83,10.0,WNW,9.2,-,N/A,,Clear,290,2014-03-15 03:53:00
10:53 PM,37.9,26.1,62,29.82,10.0,West,4.6,-,N/A,,Clear,280,2014-03-15 04:53:00
11:53 PM,34.0,27.0,75,29.82,10.0,WSW,8.1,-,N/A,,Clear,240,2014-03-15 05:53:00